Regional Weather Roundup
Issued by NWS Nashville, TN

Home | Current Version | Previous Version | Text Only | Print | Product List | Glossary On
Versions: 1 2 3 4 5 6 7 8 9 10 11 12 13 14 15 16 17 18 19 20 21 22 23 24 25 26 27
000
ASUS44 KOHX 251810
RWROHX
MIDDLE TENNESSEE HOURLY WEATHER ROUNDUP
NATIONAL WEATHER SERVICE NASHVILLE TN
100 PM CDT THU MAY 25 2017

NOTE: "FAIR" INDICATES FEW OR NO CLOUDS BELOW 12,000 FEET WITH
NO SIGNIFICANT WEATHER AND/OR OBSTRUCTIONS TO VISIBILITY.

* THESE REPORTS ARE NOT UNDER NWS QUALITY CONTROL AND MAY NOT
  REPORT WEATHER SUCH AS PRECIPITATION AND FOG.


TNZ005>011-023>034-057-059-062>066-078-080-251900
...NORTHERN MIDDLE TENNESSEE...

CITY           SKY/WX    TMP DP  RH WIND       PRES   REMARKS
CLARKSVILLE    PTSUNNY   70  52  52 W17G23    29.74R
CROSSVILLE     CLOUDY    60  48  64 W12G25    29.74R
GALLATIN       PTSUNNY   70  55  60 W12G20    29.75S
DICKSON        PTSUNNY   66  51  58 W16       29.76S
LEBANON        CLOUDY    67  52  58 W14       29.72S
NASHVILLE      PTSUNNY   71  52  50 W17G24    29.75R
PORTLAND       CLOUDY    66  54  63 W10G20    29.72R
SMYRNA         CLOUDY    69  52  54 W17       29.75S
SPARTA         CLOUDY    66  54  63 W10G17    29.72S
WEST NASHVILLE PTSUNNY   70  54  56 W12G22    29.73R
$$
TNZ056-058-060-061-075>077-079-093>097-251900
...SOUTHERN MIDDLE TENNESSEE...

CITY           SKY/WX    TMP DP  RH WIND       PRES   REMARKS
COLUMBIA       PTSUNNY   70  50  49 W9G18     29.76R
FAYETTEVILLE   MOSUNNY   68  52  56 W12G21    29.79R
MCMINNVILLE      N/A     68  52  56 W15       29.74F
MURFREESBORO   MOSUNNY   70  49  47 W13       29.74S
PULASKI        MOSUNNY   72  52  49 W9G15     29.79S
SHELBYVILLE    PTSUNNY   68  52  56 W17G24    29.76S
TULLAHOMA      PTSUNNY   66  50  55 W13       29.78S
WINCHESTER     PTSUNNY   68  52  56 W15G22      N/A
$$


...KEY TO REMARKS...
VSB - VISIBILITY IN MILES
WCI - WIND CHILL INDEX
HX  - HEAT INDEX





USA.gov is the U.S. government's official web portal to all federal, state and local government web resources and services.